Theta_e
344 343 343 344 343 343 342 343 341 338 335 334 334 334 334 336 337 337 337 337 337 339 339 339 337 337 337 337 336 334 333 333 330 328 328 328 329 330 330 331 331 331 329 326 324 322 320 318 318 322 324 325 326 330 335 335 334 333 334 332 332 333
344 344 343 343 343 343 342 343 342 340 339 338 337 336 336 338 339 339 338 337 337 339 339 338 337 338 338 336 336 335 335 334 331 330 328 328 328 329 329 329 329 330 330 329 326 326 325 321 320 322 324 325 329 333 335 335 335 333 333 332 333 331
344 344 342 342 342 342 342 343 341 341 340 340 340 339 340 339 340 340 339 338 338 338 338 337 337 338 337 335 335 335 335 333 332 332 329 328 328 328 328 328 327 327 330 330 329 330 329 327 325 323 324 327 331 334 334 335 335 333 333 332 333 330
343 344 343 343 342 341 341 342 341 341 340 340 339 339 341 340 339 339 339 339 339 339 338 338 338 337 336 335 335 336 336 333 332 333 331 331 330 328 327 327 327 326 328 330 330 330 330 329 328 326 327 329 331 333 333 334 334 334 333 331 332 330
343 343 343 344 343 341 341 341 341 342 341 340 340 340 340 339 339 339 339 338 338 339 339 338 337 336 337 337 337 337 337 335 332 333 333 334 335 331 328 329 329 327 328 330 330 330 330 328 328 328 328 330 331 332 333 333 334 334 333 332 332 329
341 342 342 343 343 341 341 341 340 341 341 340 341 340 340 340 340 340 338 337 337 339 338 338 336 334 337 338 338 338 337 337 334 334 334 333 335 334 331 330 331 330 329 330 330 330 331 330 328 327 327 329 330 331 332 333 334 334 333 333 332 329
340 341 341 341 341 342 341 341 341 341 341 340 340 340 340 340 340 340 339 338 337 338 338 338 337 335 337 338 337 337 337 338 336 335 335 334 335 335 332 329 330 330 329 329 330 330 330 330 329 328 328 328 329 331 331 333 333 334 333 333 332 329
340 341 342 341 341 341 341 342 341 340 340 341 340 340 339 339 339 339 339 337 336 338 338 338 339 338 338 337 336 337 337 338 337 336 336 336 335 335 333 331 330 330 329 329 329 330 329 328 329 328 328 328 329 330 331 332 333 334 333 333 333 330
341 342 342 342 342 341 340 341 340 339 340 339 338 339 339 339 339 337 337 336 336 338 338 337 338 339 337 336 336 336 337 337 337 337 337 337 336 335 334 332 331 331 330 329 328 329 328 327 327 328 327 327 327 328 330 332 332 334 333 333 333 332
341 341 341 341 341 340 340 341 340 340 340 339 337 338 338 338 338 337 335 336 337 338 338 338 339 338 337 338 337 335 337 337 335 334 336 336 336 336 335 332 331 330 330 329 328 328 327 326 327 327 327 327 326 327 330 331 331 332 332 332 333 332
340 341 339 337 337 337 338 337 338 339 339 339 339 339 338 337 336 336 335 335 336 336 335 336 337 336 337 337 336 335 336 336 335 334 334 335 335 335 335 332 331 331 330 328 327 327 326 326 326 327 327 326 326 327 328 330 330 331 331 331 332 332
339 339 337 335 335 335 335 334 335 335 335 336 337 337 338 338 336 336 335 335 334 334 333 334 335 335 335 336 336 336 336 336 335 335 334 334 334 333 334 332 330 331 330 329 328 326 325 326 327 327 327 326 326 327 327 329 330 330 330 331 331 332
336 337 336 335 335 333 333 332 333 332 333 334 335 335 335 336 336 336 335 334 333 334 333 334 336 335 334 335 335 336 335 335 335 334 334 334 334 334 333 332 330 329 328 328 328 327 326 326 327 328 328 328 327 327 326 327 329 329 330 330 330 330
336 336 336 335 334 332 332 332 331 332 333 334 334 334 333 334 335 335 334 334 333 333 333 334 334 334 334 335 336 335 335 335 335 335 334 334 334 334 334 332 330 329 328 327 327 327 327 327 327 329 330 330 329 328 327 327 328 328 329 329 329 329
336 336 336 335 334 333 333 333 332 332 333 333 332 332 332 332 333 333 333 333 332 332 332 332 334 333 333 334 335 335 335 335 335 334 334 333 333 334 335 333 331 329 328 328 327 327 328 329 329 330 331 331 330 330 329 327 327 327 327 329 328 328
334 335 335 334 334 333 333 332 331 332 331 331 330 330 331 331 331 330 331 331 331 331 331 331 332 331 331 332 334 335 334 335 335 334 334 333 333 333 334 334 332 329 329 329 328 328 329 330 331 331 331 332 332 331 330 328 328 327 327 327 328 328
334 335 334 333 333 332 332 331 330 330 330 329 329 329 329 329 329 329 329 329 330 330 330 330 330 329 329 330 332 333 333 333 334 334 334 334 334 333 334 334 332 330 329 329 329 330 330 331 332 332 331 331 332 332 332 329 328 328 327 327 327 328
335 335 334 333 332 331 330 329 329 329 329 328 327 328 327 328 328 327 327 328 329 330 330 329 329 328 329 330 330 331 332 333 334 334 334 334 334 334 334 333 333 331 330 330 330 330 331 331 331 331 331 331 332 333 333 332 331 329 328 327 327 328
335 334 332 331 329 328 328 328 327 327 326 326 326 327 326 326 326 326 326 327 327 327 327 328 328 327 328 328 328 329 330 331 331 333 333 334 334 334 334 333 333 333 331 331 331 330 331 333 332 332 332 331 332 333 333 333 333 332 328 327 327 327
333 331 330 328 326 326 326 326 326 325 325 325 325 326 325 325 325 325 325 325 325 325 325 325 325 326 326 326 326 327 329 329 329 331 332 333 333 334 334 333 333 333 332 332 332 332 332 333 333 334 333 332 330 331 332 332 333 333 330 328 327 326
331 328 327 325 325 325 324 323 323 324 324 324 324 325 325 325 325 324 324 324 324 323 323 323 324 325 325 325 325 325 327 328 328 329 330 332 333 333 334 333 333 333 333 332 333 332 332 333 333 333 333 333 331 331 332 332 332 332 330 329 327 326
328 326 326 325 324 324 323 321 322 322 323 322 323 323 324 324 325 324 324 323 322 322 322 322 322 324 324 325 325 325 326 327 328 329 329 330 331 332 332 332 333 332 332 332 332 332 332 332 332 332 333 332 332 334 333 330 330 331 330 330 329 328
326 325 325 324 323 323 322 322 322 322 321 321 323 324 324 324 324 323 322 321 321 322 322 322 321 322 323 324 324 324 325 326 326 327 328 328 329 330 330 331 331 332 332 332 332 331 331 331 331 332 332 331 332 334 333 330 329 329 330 331 330 330
325 325 325 324 323 323 321 322 323 322 322 322 322 323 323 322 322 321 320 320 320 321 322 321 320 320 321 322 323 323 323 323 324 325 325 326 327 327 328 330 331 331 331 330 329 330 330 330 331 331 331 332 332 331 333 333 330 328 329 331 332 331
325 325 324 324 324 322 320 320 321 321 321 321 321 321 322 321 321 320 320 320 320 320 321 321 321 320 320 320 321 320 320 321 322 322 322 322 324 324 325 327 328 330 329 329 329 330 330 329 330 331 330 332 333 332 333 332 331 330 328 330 332 331
324 324 323 324 322 320 320 321 320 320 320 319 320 321 320 321 321 320 319 319 319 320 320 321 321 320 320 320 320 320 320 320 320 320 320 321 322 322 322 323 324 326 327 328 329 329 329 327 327 328 329 330 330 331 333 331 331 333 330 328 330 330
324 323 323 324 321 319 320 321 320 319 319 318 318 320 320 321 320 319 318 318 319 320 319 320 320 320 320 320 320 320 320 319 318 318 318 318 318 318 319 320 321 323 323 324 326 326 327 326 326 327 327 327 327 328 330 330 330 332 332 330 330 329
323 323 324 323 320 320 320 320 320 319 318 317 318 319 320 321 320 318 318 319 319 319 319 319 319 318 317 317 318 317 317 316 314 313 313 313 314 314 315 316 317 319 320 322 323 324 323 324 325 325 325 326 326 326 327 328 327 328 331 331 331 330
323 323 324 322 320 320 320 320 320 318 317 317 317 317 318 319 319 319 319 319 318 318 318 318 317 316 315 314 314 314 314 313 312 312 311 311 312 313 314 315 315 316 317 318 319 320 321 322 322 323 323 324 324 325 326 326 325 325 327 329 330 330
323 323 324 321 320 321 321 321 321 318 317 317 317 317 317 319 319 319 318 318 318 318 318 318 317 316 314 313 314 314 313 313 312 312 312 313 313 314 314 315 315 315 315 315 315 316 318 318 319 320 321 321 321 322 323 324 324 323 325 326 327 327
323 322 323 322 320 321 322 322 321 319 318 317 317 317 318 319 319 319 318 318 318 317 317 318 317 316 315 315 315 315 314 314 313 313 313 314 314 315 315 315 315 315 315 315 315 315 315 315 316 316 317 318 319 319 320 321 321 321 321 322 322 323
323 323 323 323 322 322 322 322 322 321 319 319 318 317 318 318 319 319 319 318 317 317 317 317 317 316 316 317 316 315 315 314 314 314 313 314 314 314 315 315 316 315 315 315 315 315 315 315 315 315 315 315 316 317 317 318 319 318 319 320 320 320
324 323 324 324 323 323 322 321 322 322 321 320 319 317 317 318 318 318 318 318 317 316 316 317 316 316 317 318 317 316 316 314 314 313 313 313 313 313 313 314 314 315 315 315 315 316 316 315 316 316 315 315 314 314 315 316 316 317 317 318 318 319
325 324 324 324 323 323 323 322 322 323 322 321 320 318 317 318 318 316 316 318 317 315 316 316 316 317 318 318 317 317 317 315 314 313 313 313 313 312 312 312 313 313 314 314 314 314 314 314 314 314 314 315 314 314 314 314 314 315 315 316 317 318
325 325 324 324 323 323 323 323 323 323 322 322 321 319 317 318 318 317 316 317 316 315 316 316 316 317 318 318 318 318 317 315 314 313 313 313 313 312 312 312 312 313 313 313 313 313 312 312 312 312 312 313 313 313 313 313 313 313 314 315 315 316
325 325 324 324 323 323 323 324 324 324 324 323 321 320 318 318 319 318 317 316 316 316 316 315 316 318 318 318 319 318 317 316 314 313 313 313 312 312 311 311 312 312 312 312 313 313 312 312 311 311 311 311 312 312 312 312 312 313 313 313 313 314
324 325 325 324 323 324 324 325 324 324 323 323 322 321 320 320 320 319 318 317 316 316 316 316 318 319 318 318 319 318 317 316 315 313 313 312 312 312 312 311 311 312 312 312 312 312 312 312 311 311 310 310 311 311 310 311 312 312 312 313 312 313
Wind_Speed
13 13 14 14 12 14 15 15 15 14 14 14 13 13 12 12 11 10 11 11 10 10 10 10 10 10 11 11 10 10 11 10 10 10 10 10 9 9 8 7 8 9 9 9 9 8 8 8 8 7 5 2 2 2 4 5 5 4 2 1 2 1
13 12 14 14 12 13 14 14 14 14 14 13 12 12 11 10 9 9 10 10 11 12 12 12 11 10 10 11 10 11 11 10 10 11 9 8 8 8 8 8 7 9 10 9 9 7 7 8 8 8 6 3 1 2 4 5 6 5 3 2 2 2
13 13 12 12 12 13 13 13 12 11 13 12 12 11 11 10 9 10 10 10 11 10 10 10 12 12 11 10 11 12 12 10 10 11 10 8 8 8 8 8 8 8 9 9 9 8 7 7 7 8 6 4 3 4 4 4 5 5 4 3 2 3
13 13 12 11 11 12 12 11 10 10 11 12 11 11 10 10 10 11 11 11 10 7 6 6 9 11 10 9 11 11 11 10 9 10 11 9 9 10 9 8 9 8 8 9 10 9 9 7 6 6 6 4 4 4 4 4 5 6 5 3 3 5
12 12 11 11 10 11 11 10 9 10 9 9 10 9 9 9 9 9 9 9 7 6 4 4 7 9 8 8 9 10 10 10 10 11 12 12 10 10 9 9 9 8 8 9 10 9 9 8 7 6 6 5 4 4 4 4 5 6 5 4 5 6
11 10 10 10 10 10 10 9 8 8 7 7 8 7 7 7 8 8 8 8 4 4 4 4 7 7 7 7 8 9 10 10 10 10 11 12 10 9 9 9 8 8 8 8 9 9 9 8 8 7 6 6 5 4 5 5 6 7 6 5 6 7
10 10 10 9 9 9 8 8 7 8 7 7 7 7 7 7 8 8 7 7 4 3 5 5 6 7 6 7 8 10 11 9 9 9 9 10 9 8 9 8 8 7 7 7 8 8 9 9 8 7 7 7 6 5 5 6 7 7 7 6 7 7
10 9 8 8 8 7 7 7 8 8 7 7 7 6 7 8 9 9 7 6 5 4 5 6 7 7 7 7 9 12 10 8 7 8 8 9 9 9 8 8 7 7 7 7 8 8 9 10 9 9 7 7 7 6 6 6 6 7 7 6 6 7
10 9 8 7 7 7 7 7 7 8 7 7 7 6 7 8 8 7 6 5 5 6 7 7 8 7 7 8 12 13 8 7 9 9 9 9 9 9 8 8 7 7 7 7 8 8 9 10 10 10 9 8 8 8 7 6 7 7 7 7 6 7
9 8 7 7 7 7 7 7 7 8 7 7 7 6 7 7 6 5 5 6 6 7 7 8 7 6 7 9 11 11 7 7 11 11 11 10 10 9 8 7 7 6 6 7 8 8 9 10 10 11 11 10 9 9 8 7 8 8 8 7 6 7
7 6 5 5 4 4 5 5 5 6 7 6 6 6 6 7 7 6 6 8 9 8 8 9 7 6 7 7 8 8 7 8 9 11 13 13 13 11 8 7 6 6 6 6 7 9 9 9 10 11 12 11 10 10 9 9 9 8 8 8 7 7
7 6 4 4 3 2 2 2 2 3 4 5 5 5 5 5 6 6 6 9 11 10 9 9 7 7 7 6 6 7 8 9 8 8 11 13 14 13 10 8 7 7 6 5 5 9 10 9 10 11 11 11 11 10 11 11 10 10 9 9 8 7
7 6 5 4 3 3 2 2 2 2 2 3 3 3 4 5 5 5 6 8 9 9 8 7 6 6 6 6 7 8 8 8 8 7 8 11 13 14 12 10 8 8 7 6 6 9 10 11 11 11 10 10 10 11 12 12 12 12 11 10 9 8
7 7 6 5 3 3 3 2 2 2 2 2 2 2 1 4 5 4 5 7 8 8 8 7 5 4 6 6 7 8 8 7 7 7 7 8 11 13 13 11 10 9 9 9 9 11 11 12 12 11 10 10 10 11 11 12 12 13 13 12 11 9
8 7 6 5 4 3 3 2 2 3 3 2 2 2 2 2 3 3 3 4 4 5 7 7 5 4 5 5 6 7 8 7 7 7 7 7 9 12 13 12 12 11 10 10 11 12 12 12 12 11 10 9 10 10 11 12 13 13 13 13 12 11
9 8 6 5 4 4 3 3 3 4 4 3 3 3 3 2 3 3 3 3 3 4 5 6 5 4 4 5 5 6 7 7 7 7 7 8 8 11 14 13 13 13 11 11 12 12 12 11 11 11 10 9 9 9 10 13 13 14 14 14 14 13
9 8 7 6 6 5 5 5 4 5 4 4 3 3 3 3 3 3 4 4 4 4 5 5 5 3 3 4 4 5 6 6 6 7 7 7 7 10 13 13 14 14 13 12 13 13 12 11 10 10 10 10 9 8 9 12 13 13 14 15 14 14
9 9 8 8 8 7 6 5 5 5 5 4 4 3 3 3 3 3 4 4 4 4 4 4 4 3 2 3 3 3 5 5 6 7 7 7 8 9 11 13 14 15 14 13 13 13 13 12 12 10 10 10 9 8 8 9 11 12 14 15 15 16
9 9 9 9 9 8 7 6 5 5 5 4 4 3 3 3 3 4 4 4 3 3 2 2 2 2 2 2 3 3 4 5 5 6 6 7 8 10 11 12 12 13 15 15 13 13 12 11 11 10 10 9 9 9 9 9 10 11 13 14 16 17
10 10 10 10 9 7 6 6 5 5 5 4 4 4 3 4 4 4 5 4 3 2 1 1 1 2 2 2 3 4 3 4 4 5 6 6 8 10 11 10 9 10 13 15 14 13 12 10 9 9 10 10 10 11 9 9 10 11 13 13 15 16
11 11 10 9 8 7 6 5 5 5 5 4 4 5 5 5 5 5 5 4 3 2 1 1 1 2 2 1 2 3 2 3 3 3 5 5 6 8 9 8 8 8 10 13 14 14 12 9 7 8 8 9 12 12 9 10 11 11 13 13 14 14
12 12 10 9 7 6 5 5 5 5 5 5 5 5 6 6 6 6 5 4 4 3 3 3 2 3 2 2 2 2 2 1 1 2 1 2 4 5 6 6 6 7 8 10 12 13 13 10 8 7 5 6 9 9 9 13 16 13 11 11 12 14
13 12 10 9 8 7 6 5 5 5 5 5 5 5 6 7 6 6 6 5 6 6 5 5 5 4 4 4 3 3 3 2 2 2 3 3 2 2 3 3 4 5 6 7 7 8 11 10 9 6 4 4 4 4 4 10 16 16 10 7 9 12
13 12 11 10 8 8 9 8 6 6 6 5 5 6 6 7 6 6 6 6 6 6 6 6 6 6 5 5 5 5 5 5 4 4 4 4 4 3 2 2 2 2 4 6 7 5 5 7 8 6 3 3 2 2 2 3 8 13 10 6 6 9
14 13 12 11 10 10 11 10 9 8 7 6 7 7 7 7 7 6 6 6 6 6 6 6 6 6 6 6 6 6 6 6 5 4 4 4 4 4 3 3 2 2 1 4 3 2 1 2 4 5 5 2 1 2 2 0 2 6 9 7 5 6
14 13 13 12 12 11 11 11 11 10 9 8 8 7 7 7 7 6 6 7 7 7 7 7 6 6 6 6 6 6 5 5 5 4 3 3 4 4 4 4 3 2 2 3 1 2 2 1 0 3 4 1 1 0 1 1 1 1 6 7 6 7
15 14 14 13 13 12 11 12 11 10 8 8 8 8 8 8 8 7 8 8 8 7 7 7 6 6 5 5 5 5 5 5 5 5 4 4 4 4 4 4 4 4 3 4 2 2 2 1 1 2 1 4 4 3 3 2 1 1 2 4 5 8
16 14 15 15 15 13 12 12 11 9 8 7 7 9 9 9 8 8 8 8 8 8 7 7 7 6 6 6 6 6 6 6 6 6 5 5 5 4 4 4 5 4 4 4 3 2 2 2 2 2 3 4 4 3 2 3 3 2 1 1 2 4
17 15 15 17 16 14 13 12 11 10 9 7 7 8 9 9 9 9 8 8 8 8 7 7 7 7 8 8 8 8 7 7 7 6 6 6 6 5 5 5 5 5 4 5 5 4 3 2 3 3 3 3 3 3 1 1 3 3 2 1 1 1
18 16 16 18 18 16 14 13 12 12 10 9 8 8 9 9 9 9 8 8 8 8 8 7 8 8 8 8 8 7 7 7 7 7 6 7 6 6 7 7 7 6 6 5 5 5 4 3 3 3 3 3 3 4 4 2 2 3 3 3 3 3
20 17 17 19 19 17 16 14 13 13 12 11 10 9 9 9 9 9 9 9 8 7 8 8 8 8 8 8 7 7 7 7 7 7 6 6 6 6 6 7 7 7 7 6 5 5 5 4 3 3 3 2 2 2 2 2 2 3 4 4 4 4
20 19 18 19 20 18 17 15 14 13 13 13 12 11 10 10 10 9 9 9 8 8 8 8 8 8 8 8 7 6 6 6 6 6 6 6 6 5 5 5 6 6 6 6 6 5 5 4 3 3 3 2 2 2 2 2 2 2 3 4 4 5
21 21 19 19 20 18 18 17 15 14 14 13 13 12 10 10 10 9 9 9 9 9 9 9 9 9 10 9 8 7 6 5 5 5 5 6 6 6 5 5 5 6 6 6 6 5 5 5 4 4 3 3 2 2 2 2 2 2 3 4 5 5
20 20 19 19 19 19 19 18 16 14 13 13 13 13 11 10 10 10 9 9 10 9 9 9 10 9 10 10 8 7 7 6 5 5 5 6 5 5 5 5 6 6 6 6 6 6 6 5 5 4 4 3 3 3 2 2 2 2 3 4 4 5
19 19 19 19 20 20 19 18 16 15 14 13 13 13 12 11 11 11 10 10 10 9 9 10 10 10 11 11 9 9 8 7 7 6 5 5 5 5 4 5 5 5 5 5 5 5 5 5 5 5 4 4 3 3 4 3 3 3 3 4 4 5
16 16 17 18 19 19 18 17 16 16 14 13 13 13 13 12 12 12 11 11 11 10 10 9 10 11 11 11 10 10 9 8 8 7 6 6 5 5 4 4 4 5 5 5 5 5 5 5 5 4 4 4 3 3 4 4 4 4 4 4 5 6
14 13 14 16 16 17 17 16 16 17 17 16 15 14 13 14 14 14 13 12 11 11 11 10 10 11 12 11 10 10 9 9 9 8 7 7 6 6 5 5 5 5 5 5 5 4 4 4 4 4 4 3 3 3 4 4 4 4 5 5 6 6
Wind_Direction
157 161 163 161 163 175 177 174 177 177 181 182 181 181 178 181 181 185 188 186 186 179 181 187 182 177 180 184 184 183 178 181 187 184 185 186 186 189 195 203 207 208 208 212 217 218 219 223 220 211 217 234 326 308 202 195 201 198 186 164 133 202
158 161 160 160 160 171 173 174 177 176 183 183 183 184 182 184 182 194 195 190 193 187 190 187 177 181 181 183 188 189 187 186 189 192 190 184 185 187 194 202 208 213 210 213 215 213 217 222 224 218 215 228 272 242 211 198 202 201 196 172 155 227
157 158 160 158 160 168 169 173 173 176 186 182 186 189 188 194 192 205 207 202 208 199 191 173 166 184 183 183 193 194 192 189 192 200 198 188 191 190 194 204 209 217 213 216 217 213 216 215 224 222 216 233 245 235 224 209 205 204 204 173 183 246
158 156 158 156 162 169 168 173 170 183 194 182 190 195 196 208 207 215 214 211 214 200 197 173 165 180 183 186 193 195 195 192 195 205 205 198 204 201 196 206 213 220 216 217 220 220 221 216 219 217 213 228 241 240 231 223 208 204 206 173 207 253
161 155 158 155 162 170 169 176 177 189 198 185 192 197 201 213 215 222 223 224 214 183 194 189 171 172 178 187 186 189 196 199 200 205 207 201 208 208 199 204 209 215 216 220 224 223 221 219 219 215 212 219 232 240 231 227 211 202 202 186 221 247
164 159 162 159 164 168 170 182 187 188 193 190 193 197 201 210 216 220 229 238 209 170 195 187 182 179 179 189 188 194 199 205 207 205 208 203 208 212 204 207 208 211 215 223 229 223 218 218 218 216 213 214 223 235 230 225 210 200 199 196 230 247
168 166 169 170 165 162 167 178 186 189 193 194 192 199 202 211 220 211 226 237 190 177 211 195 197 197 194 198 203 209 206 207 212 210 212 209 212 216 214 216 215 218 218 219 226 223 220 219 218 216 212 213 216 227 233 229 211 202 199 196 230 248
174 173 175 180 172 170 175 174 179 185 192 192 187 201 206 216 224 207 211 221 192 196 214 210 212 206 204 207 212 216 209 205 214 216 216 213 214 214 215 218 215 216 212 213 219 219 222 223 219 214 211 210 213 223 232 231 216 207 207 198 219 246
181 179 180 185 186 192 195 188 186 188 196 197 193 206 214 220 228 212 198 200 200 206 213 221 224 215 210 212 218 218 206 207 217 217 214 216 219 217 212 211 210 212 206 206 211 214 222 226 223 218 216 212 210 219 225 228 221 211 214 209 212 239
192 188 187 192 191 190 191 191 191 194 201 207 211 218 213 214 224 217 197 196 204 210 217 224 227 220 210 211 221 220 208 217 227 223 216 214 216 218 216 210 210 213 207 207 210 213 219 225 227 222 220 217 209 213 220 223 221 214 214 213 210 227
191 190 195 200 198 191 190 191 190 196 198 199 208 205 201 208 215 215 207 206 208 213 220 223 223 212 202 206 220 224 217 224 235 232 224 218 215 216 216 213 212 212 214 219 214 213 219 224 229 225 221 220 212 211 217 221 220 217 213 212 209 216
180 183 191 193 193 199 202 205 200 207 199 190 195 196 193 193 200 201 198 208 216 219 220 223 226 214 204 208 219 227 226 226 229 230 226 222 221 221 215 213 215 209 211 219 209 209 214 219 228 229 224 221 216 212 215 218 220 220 215 213 213 213
179 179 185 186 187 190 195 198 194 207 202 190 202 212 199 173 176 192 193 206 218 217 213 216 223 219 218 215 218 229 231 230 227 227 225 219 222 223 215 210 211 211 208 208 205 204 205 210 222 229 228 225 221 220 219 219 219 221 220 219 219 218
180 182 182 182 182 183 183 180 177 177 169 168 182 191 178 159 163 186 201 212 219 218 217 218 214 211 220 217 218 229 234 235 233 232 229 220 221 220 216 208 204 208 205 203 206 207 205 206 215 222 226 228 225 227 226 223 222 222 223 224 225 223
178 179 176 176 174 173 166 170 168 143 129 119 116 113 94 126 141 147 167 187 200 204 211 218 211 189 196 206 214 227 233 233 229 232 231 224 223 218 214 209 204 204 202 204 210 212 210 207 212 215 220 225 225 228 229 229 229 227 225 224 227 228
175 172 172 177 172 174 167 162 149 123 116 110 103 101 98 110 118 126 138 143 143 145 169 193 203 196 194 201 206 219 231 229 221 226 227 221 222 216 210 208 207 205 202 205 210 211 211 210 210 210 214 224 229 230 232 233 231 231 231 228 227 227
171 170 173 177 174 176 166 154 140 126 121 116 117 117 116 123 126 129 132 134 132 128 142 159 175 197 209 204 203 219 230 230 225 226 223 217 222 217 210 210 210 208 207 209 211 210 211 211 209 212 215 221 231 236 239 241 237 235 235 233 230 228
169 170 173 172 170 166 153 147 137 130 127 123 127 125 123 136 135 129 121 118 120 123 131 135 146 169 193 198 203 226 229 222 225 233 232 224 225 221 214 217 215 212 212 215 216 214 214 215 216 222 222 219 228 238 243 247 246 241 237 233 232 232
170 171 172 170 166 159 153 150 138 135 135 133 134 126 130 137 123 110 104 102 102 108 113 118 140 185 216 222 214 231 232 217 218 230 236 234 230 224 219 219 217 216 216 219 223 222 219 221 221 228 233 225 225 236 243 251 254 248 240 236 234 233
172 173 171 169 167 165 161 154 148 146 141 137 134 125 126 126 116 105 103 102 101 98 87 101 196 210 222 240 223 229 236 227 227 228 227 229 230 227 221 216 214 218 219 221 227 228 225 226 228 239 246 238 233 240 245 250 260 259 244 236 236 234
175 176 174 173 172 170 164 158 157 151 144 141 136 131 129 120 110 103 102 102 99 91 84 113 186 185 191 205 201 214 223 221 224 224 223 222 223 224 221 216 217 220 222 223 225 226 226 224 231 244 252 251 247 247 246 247 260 272 255 238 234 233
176 178 180 179 174 168 163 158 155 147 142 138 130 130 129 119 112 108 104 99 95 92 96 105 116 132 152 153 155 172 186 185 168 178 188 194 203 209 211 211 216 219 221 225 225 223 220 215 225 238 248 260 253 245 247 253 256 265 263 241 235 234
177 178 181 182 177 167 160 151 145 143 139 133 124 116 115 116 118 115 110 106 102 101 100 104 109 116 124 121 121 127 127 110 92 92 92 95 121 159 181 192 210 223 220 221 224 221 217 215 219 224 226 240 245 238 248 258 249 244 244 232 236 240
179 179 180 183 175 164 162 154 143 141 135 130 128 122 120 122 123 119 113 110 107 107 105 104 106 110 114 114 112 113 114 108 89 73 76 76 69 72 89 117 168 222 236 233 222 207 217 223 216 208 212 215 214 242 246 246 233 234 242 238 236 243
182 181 181 182 175 166 164 157 147 146 143 136 138 142 140 135 132 127 120 115 113 114 113 108 106 108 110 111 111 111 112 113 105 91 90 88 77 65 63 69 82 112 282 272 237 142 99 238 224 215 219 199 163 230 251 105 194 236 253 260 264 255
184 184 183 184 181 173 167 161 155 157 158 155 154 153 151 145 142 134 125 123 120 118 118 115 113 112 111 112 111 111 109 108 104 97 91 88 86 74 67 59 40 57 52 357 350 89 90 108 355 218 226 295 57 66 62 100 95 261 248 248 260 261
185 186 184 185 186 180 174 170 166 165 166 163 155 148 146 143 139 132 127 128 125 122 121 120 118 116 119 118 113 110 104 102 98 94 88 76 71 64 63 60 43 42 41 20 8 37 64 102 82 91 25 12 33 38 43 74 80 6 239 231 244 247
187 188 186 188 189 185 182 176 171 171 169 164 154 146 146 142 139 136 131 130 128 126 124 121 119 118 120 119 113 110 103 100 95 90 87 76 65 61 58 56 51 47 40 33 26 15 10 338 336 29 18 9 26 28 38 51 37 15 337 285 271 246
189 190 189 192 191 189 188 182 175 175 172 167 156 152 152 147 144 142 138 136 134 131 128 124 122 120 119 117 112 109 104 100 95 87 84 79 71 70 68 64 59 52 50 49 43 35 25 6 352 352 345 334 334 316 274 75 39 12 339 296 321 321
190 192 192 194 193 191 192 188 182 178 175 171 165 162 160 154 154 153 149 148 144 142 139 133 131 130 127 122 116 112 107 101 97 91 88 86 80 75 72 71 70 67 63 59 53 50 45 36 32 23 357 329 310 303 284 259 276 301 286 265 283 293
190 193 195 195 194 193 194 194 189 182 179 177 174 173 171 166 166 164 161 160 159 156 151 147 144 142 139 133 125 119 113 106 102 99 97 95 88 82 78 76 74 72 70 68 66 64 58 51 46 43 32 8 353 345 324 300 294 298 289 278 284 283
191 194 195 196 195 194 196 198 196 189 184 181 181 183 184 180 176 174 173 169 166 165 162 160 158 154 154 148 138 130 122 112 105 102 101 100 98 95 90 85 81 78 77 74 72 70 67 62 55 51 52 41 24 22 7 348 335 315 301 296 295 289
193 194 195 195 195 196 198 201 201 196 190 186 186 190 193 191 187 185 182 178 175 175 173 172 171 168 165 161 154 146 137 125 115 108 106 105 104 103 99 95 92 88 85 82 78 78 74 66 58 53 54 54 49 45 34 15 349 316 303 296 287 284
195 195 194 195 196 199 202 204 205 202 196 191 189 191 197 198 195 196 192 187 186 184 182 182 181 178 173 170 165 159 152 141 130 121 115 112 107 105 102 99 98 96 91 88 85 82 77 69 56 43 36 32 33 34 29 19 351 322 311 298 288 293
196 195 195 196 198 200 204 206 207 207 203 199 195 194 200 203 200 202 201 195 195 195 193 189 187 183 178 176 172 167 162 153 146 141 132 127 121 112 108 102 102 102 100 97 97 92 84 76 62 46 32 17 11 18 14 4 351 335 328 317 306 303
198 197 197 199 200 202 204 206 208 210 207 205 203 200 201 203 202 204 205 203 202 201 199 195 190 185 182 181 179 173 169 165 160 156 151 147 142 134 128 121 117 115 114 112 110 106 98 88 77 63 47 26 14 19 9 354 346 340 332 322 310 300
198 199 200 202 203 203 204 206 209 212 213 212 211 209 207 205 204 206 209 209 209 205 203 200 192 185 185 186 185 180 177 173 169 167 165 162 158 154 148 142 140 135 132 132 124 116 110 100 92 82 68 51 36 28 12 355 341 335 326 314 305 297